Regional Weather Roundup
Issued by NWS

Home | Current Version | Previous Version | Text Only | Print | Product List | Glossary On
Versions: 1 2 3 4 5 6 7 8 9 10 11 12 13 14 15 16 17 18 19 20 21 22 23 24 25 26 27 28 29 30 31 32 33 34 35 36 37 38 39 40 41 42 43 44 45 46 47 48 49 50
000
ASUS46 KPQR 260410
RWROR

OREGON REGIONAL WEATHER ROUNDUP
NATIONAL WEATHER SERVICE PORTLAND OR
900 PM PDT MON JUL 25 2016

NOTE: "FAIR" INDICATES FEW OR NO CLOUDS BELOW 12,000 FEET WITH
NO SIGNIFICANT WEATHER AND/OR OBSTRUCTIONS TO VISIBILITY.

ORZ001>013-260500-
NORTHWEST OREGON


CITY           SKY/WX    TMP DP  RH WIND       PRES   REMARKS
ASTORIA        LGT RAIN  62  59  90 NW8       30.14R FOG
NEWPORT        CLOUDY    59  55  88 N8        30.16S
PORTLAND       PTCLDY    77  59  53 NW10      30.03R
VANCOUVER WA   CLEAR     76  59  55 NW6       30.03R
SCAPPOOSE      CLEAR     73  57  57 NW8       30.03R
HILLSBORO      CLEAR     74  57  55 NW12      30.04R
AURORA         CLEAR     78  57  48 NW8       30.04R
MCMINNVILLE    CLEAR     69  58  67 SW12      30.05R
SALEM          CLEAR     73  58  59 W13       30.04R
CORVALLIS        N/A     66  57  72 W23G29    30.06R
EUGENE         PTCLDY    74  58  57 W5        30.05R
$$

ORZ021-028-260500-
SOUTHWEST OREGON


CITY           SKY/WX    TMP DP  RH WIND       PRES   REMARKS
NORTH BEND     CLOUDY    61  57  88 N14       30.15R
BROOKINGS      CLEAR     58  54  86 S5        30.02R
ROSEBURG       CLEAR     77  57  50 NW5       30.04R
SEXTON SUMMIT  CLEAR     64  53  67 VRB7      30.15R
MEDFORD        CLEAR     83  53  35 N6        30.01R
$$

ORZ014>016-041-260500-
COLUMBIA GORGE


CITY           SKY/WX    TMP DP  RH WIND       PRES   REMARKS
TROUTDALE      CLEAR     78  58  49 NW9       30.02R
THE DALLES     CLEAR     84  57  39 W15       29.91R
$$

ORZ029>031-041-044-049-050-061>064-502-503-505>511-260500-
EASTERN OREGON


CITY           SKY/WX    TMP DP  RH WIND       PRES   REMARKS
REDMOND        CLEAR     78  53  41 NW18      30.05R
BEND           CLEAR     77  55  47 NW13      30.07R
PRINEVILLE     CLEAR     77  54  44 NW8G17    30.06R
KLAMATH FALLS  CLEAR     77  52  41 N15       30.11R
LAKEVIEW       CLEAR    N/A N/A N/A NW6       30.12S
HERMISTON      CLEAR     84  49  29 S3        29.85R
PENDLETON      CLEAR     80  39  23 NW6       29.91R
JOHN DAY       CLEAR     83  41  22 CALM      30.05R
MEACHAM        CLEAR     67  46  47 CALM      30.08S
LA GRANDE      CLEAR     82  41  23 W13       29.98R
BAKER CITY     PTCLDY    72  45  37 W7        30.02R
BURNS          CLEAR     78  32  18 W9        30.04R
ROME             N/A     90  26  10 N10       29.98R
ONTARIO        CLEAR     80  52  37 SW3       29.87R
$$



USA.gov is the U.S. government's official web portal to all federal, state and local government web resources and services.